User: anonymous   Login
Location: Caltech
(34.1382°N, 118.1253°W)
Time: 07:51:44
(UTC-08:00)
Language:

AO-Echo - Orbit

View from above orbital plane
View from above orbital plane
View from above satellite
View from above satellite

Ground track
Ground track

The orbit data is extracted from the following two-line orbital elements,

1 28375U 04025K   18050.75835231 +.00000015 +00000-0 +18023-4 0  9998
2 28375 098.3787 344.3029 0081315 256.9398 102.2705 14.41875797717492
Epoch (UTC): 19 February 2018 18:12:01
Eccentricity: 0.0081315
inclination: 98.3787°
perigee height: 694 km
apogee height: 810 km
right ascension of ascending node: 344.3029°
argument of perigee: 256.9398°
revolutions per day: 14.41875797
mean anomaly at epoch: 102.2705°
orbit number at epoch: 71749

The dashed part of the orbit path shows where the satellite is in the earth's shadow,  

DLR